Weather History for Fort Lauderdale, FL

Change the Weather History Date:

Tuesday, December 11, 2012

  Actual Average Record
Temperature  
Mean Temperature 79 °F -  
Max Temperature 87 °F 78 °F 87 °F (1988)
Min Temperature 71 °F 62 °F 32 °F (1962)
Cooling Degree Days 14    
Growing Degree Days 29 (Base 50)    
Moisture  
Dew Point 73 °F    
Average Humidity 83    
Maximum Humidity 94    
Minimum Humidity 61    
Precipitation  
Precipitation 0.47 in - - ()
Sea Level Pressure  
Sea Level Pressure 29.99 in    
Wind  
Wind Speed 7 mph (South)    
Max Wind Speed 14 mph    
Max Gust Speed -    
Visibility 10 miles    
Events Rain , Thunderstorm    
Averages and records for this station are not official NWS values.
T = Trace of Precipitation, MM = Missing Value Source: NWS Daily Summary

Daily Weather History Graph

Daily Weather History Graph

Search for Another Location

Airport:

Trip Planner

Search our weather history database for the weather conditions in past years. The results will help you decide how hot, cold, wet, or windy it might be!

Date:

Astronomy

Dec. 11, 2012 Rise Set
Actual Time 6:58 AM EST 5:30 PM EST
Civil Twilight 6:33 AM EST 5:55 PM EST
Nautical Twilight 6:04 AM EST 6:24 PM EST
Astronomical Twilight 5:36 AM EST 6:52 PM EST
Moon 4:56 AM EST (12/11) 4:03 PM EST (12/11)
Length of Visible Light 11h 22m
Length of Day
10h 31m
Waning Crescent, 4% of the Moon is Illuminated
Dec 11
Waning Crescent
Dec 13
New
Dec 20
First Quarter
Dec 28
Full
Jan 4
Last Quarter

Hourly Weather History & Observations

Time (EST) Temp. Heat Index Dew Point Humidity Pressure Visibility Wind Dir Wind Speed Gust Speed Precip Events Conditions
12:01 AM 78.8 °F - 73.4 °F 83% 29.97 in 10.0 mi SSE 8.1 mph - N/A   Scattered Clouds
12:53 AM 78.1 °F - 73.0 °F 84% 29.96 in 10.0 mi SSE 6.9 mph - N/A   Partly Cloudy
1:41 AM 78.8 °F - 73.4 °F 83% 29.96 in 10.0 mi South 6.9 mph - N/A   Mostly Cloudy
1:53 AM 77.0 °F - 73.0 °F 88% 29.96 in 10.0 mi SSE 5.8 mph - N/A   Mostly Cloudy
2:01 AM 78.8 °F - 73.4 °F 83% 29.95 in 10.0 mi SSE 5.8 mph - N/A   Scattered Clouds
2:53 AM 77.0 °F - 73.4 °F 89% 29.96 in 10.0 mi South 6.9 mph - N/A   Scattered Clouds
3:00 AM 77.0 °F - 73.4 °F 89% 29.95 in 10.0 mi South 4.6 mph - N/A Thunderstorm Thunderstorm
3:16 AM 77.0 °F - 73.4 °F 89% 29.95 in 10.0 mi SSW 4.6 mph - N/A Rain , Thunderstorm Light Thunderstorms and Rain
3:36 AM 75.2 °F - 71.6 °F 89% 29.96 in 10.0 mi West 13.8 mph - 0.01 in Rain , Thunderstorm Light Thunderstorms and Rain
3:53 AM 73.0 °F - 69.1 °F 87% 29.99 in 10.0 mi SSW 10.4 mph - 0.15 in Rain , Thunderstorm Heavy Thunderstorms and Rain
4:26 AM 71.6 °F - 69.8 °F 94% 29.94 in 10.0 mi SE 4.6 mph - 0.30 in Rain , Thunderstorm Light Thunderstorms and Rain
4:53 AM 72.0 °F - 70.0 °F 93% 29.95 in 10.0 mi SSW 3.5 mph - 0.30 in   Mostly Cloudy
5:53 AM 71.1 °F - 69.1 °F 93% 29.98 in 10.0 mi SSE 3.5 mph - N/A   Clear
6:53 AM 72.0 °F - 70.0 °F 93% 29.97 in 10.0 mi South 3.5 mph - N/A   Clear
7:53 AM 73.0 °F - 71.1 °F 93% 30.01 in 10.0 mi West 6.9 mph - N/A   Scattered Clouds
8:53 AM 78.1 °F - 73.9 °F 87% 30.02 in 10.0 mi SW 8.1 mph - N/A   Scattered Clouds
9:53 AM 82.0 °F 87.9 °F 73.9 °F 76% 30.02 in 10.0 mi South 11.5 mph - 0.01 in   Partly Cloudy
10:06 AM 82.4 °F 89.5 °F 75.2 °F 79% 30.02 in 10.0 mi SSW 9.2 mph - N/A   Mostly Cloudy
10:35 AM 82.4 °F 88.2 °F 73.4 °F 74% 30.02 in 10.0 mi SSW 11.5 mph - N/A   Scattered Clouds
10:53 AM 82.9 °F 88.8 °F 73.0 °F 72% 30.03 in 10.0 mi South 11.5 mph - N/A   Partly Cloudy
11:53 AM 84.9 °F 91.4 °F 73.0 °F 67% 30.02 in 10.0 mi South 8.1 mph - N/A   Scattered Clouds
12:53 PM 87.1 °F 93.6 °F 72.0 °F 61% 29.98 in 10.0 mi SSE 9.2 mph - N/A   Scattered Clouds
1:53 PM 84.0 °F 91.2 °F 73.9 °F 72% 29.96 in 10.0 mi SSE 11.5 mph - N/A   Scattered Clouds
2:53 PM 82.0 °F 87.9 °F 73.9 °F 76% 29.96 in 10.0 mi SSE 8.1 mph - 0.01 in Rain Rain
3:53 PM 82.9 °F 90.2 °F 75.0 °F 77% 29.95 in 10.0 mi SE 10.4 mph - 0.00 in   Scattered Clouds
4:53 PM 81.0 °F 86.2 °F 73.9 °F 79% 29.96 in 10.0 mi SSE 11.5 mph - N/A   Clear
5:53 PM 79.0 °F - 73.9 °F 84% 29.96 in 10.0 mi SE 9.2 mph - N/A   Scattered Clouds
6:53 PM 79.0 °F - 73.9 °F 84% 29.98 in 10.0 mi South 6.9 mph - N/A   Partly Cloudy
7:53 PM 79.0 °F - 73.9 °F 84% 30.00 in 10.0 mi South 8.1 mph - N/A   Scattered Clouds
8:33 PM 78.8 °F - 73.4 °F 83% 30.01 in 10.0 mi Calm Calm - N/A   Mostly Cloudy
8:53 PM 79.0 °F - 73.9 °F 84% 30.04 in 10.0 mi Calm Calm - N/A   Mostly Cloudy
9:26 PM 78.8 °F - 73.4 °F 83% 30.04 in 10.0 mi SSE 3.5 mph - N/A   Mostly Cloudy
9:53 PM 78.1 °F - 73.9 °F 87% 30.06 in 10.0 mi Calm Calm - N/A   Clear
10:53 PM 78.1 °F - 73.0 °F 84% 30.06 in 10.0 mi SE 3.5 mph - N/A   Scattered Clouds
11:02 PM 78.8 °F - 73.4 °F 83% 30.06 in 10.0 mi Calm Calm - N/A   Mostly Cloudy
11:44 PM 77.0 °F - 73.4 °F 89% 30.06 in 10.0 mi Calm Calm - N/A   Mostly Cloudy
11:53 PM 77.0 °F - 73.9 °F 90% 30.07 in 10.0 mi Calm Calm - N/A   Mostly Cloudy